Flag Weather past 2 weeks in Moreno Valley, California, U.S.A.

Now
45 °F

Clear.


Feels Like: 45 °F
Forecast: 43 / 71 °F
Wind: 1 mph from Northwest

Location: Riverside / March Air Force Base

Current Time: Nov 24, 2014 at 1:54:04 AM

Latest Report: Nov 24, 2014 at 12:58 AM


Visibility: 10 mi

Pressure: 30.17 "Hg

Humidity: 25%

Dew point: 11 °F

Location of Moreno ValleyLocation

Historic Weather in Moreno Valley — Graph

°F

Moreno Valley temperature yesterday

Maximum temperature yesterday: 74 °F (at 12:58 PM)
Minimum temperature yesterday: 46 °F (at 12:58 AM)
Average temperature yesterday: 58 °F

Past Weeks' High & Low Weather Summary

 TemperatureHumidityPressure
High86 °F (Nov 9, 12:58 PM)100% (Nov 10, 4:58 AM)30.21 "Hg (Nov 10, 4:58 AM)
Low39 °F (Nov 19, 3:58 AM)5% (Nov 16, 1:58 PM)29.80 "Hg (Nov 9, 3:58 PM)
Average58 °F58%30.03 "Hg
* Reported Nov 9 12:58 AM — Nov 24 12:58 AM, Moreno Valley, Weather by CustomWeather, © 2014

Note: Actual official high and low records may vary slightly from our data, if they occured in-between our weather recording intervals... More about our weather records

Advertising

Moreno Valley weather history for previous 24 hours

 ConditionsComfort  
Time TempWeatherWind HumidityBarometerVisibility
12:58 AM
Nov 24
45 °FClear.1 mph25%30.17 "Hg10 mi
11:58 PM
Nov 23
46 °FClear.2 mph26%30.18 "Hg10 mi
10:58 PM47 °FClear.No wind23%30.17 "Hg10 mi
9:58 PM53 °FClear.No wind19%30.17 "Hg10 mi
8:58 PM55 °FClear.3 mph17%30.16 "Hg10 mi
7:58 PM53 °FClear.No wind17%30.17 "Hg10 mi
6:58 PM55 °FClear.2 mph15%30.16 "Hg10 mi
5:58 PM62 °FClear.5 mph11%30.14 "Hg10 mi
4:58 PM65 °FClear.9 mph9%30.11 "Hg10 mi
3:58 PM69 °FSunny.12 mph8%30.10 "Hg10 mi
2:58 PM72 °FSunny.13 mph7%30.07 "Hg10 mi
1:58 PM74 °FSunny.18 mph6%30.07 "Hg10 mi
12:58 PM74 °FSunny.6 mph7%30.08 "Hg10 mi
11:58 AM72 °FSunny.5 mph9%30.11 "Hg10 mi
10:58 AM71 °FSunny.5 mph14%30.11 "Hg10 mi
9:58 AM68 °FSunny.6 mph24%30.14 "Hg10 mi
8:58 AM65 °FSunny.6 mph36%30.15 "Hg10 mi
7:58 AM53 °FSunny.7 mph100%30.12 "Hg10 mi
6:58 AM46 °FFog.2 mph100%30.10 "Hg6 mi
5:58 AM49 °FPassing clouds.2 mph100%30.07 "Hg10 mi
4:58 AM50 °FFog.5 mph100%30.05 "Hg0 mi
3:58 AM51 °FFog.2 mph100%30.04 "Hg0 mi
2:58 AM51 °FFog.3 mph100%30.04 "Hg0 mi
1:58 AM51 °FFog.2 mph100%30.05 "Hg0 mi
Weather by CustomWeather, © 2014

See weather overviewHow to use our weather pages